Vorticity
nan nan nan nan nan nan nan nan nan nan nan nan nan nan nan nan nan nan nan nan nan nan nan nan nan nan nan nan nan nan nan nan nan nan nan nan nan nan nan nan nan nan nan nan nan nan nan nan nan nan nan nan nan nan nan nan nan nan nan nan nan nan nan nan nan nan nan nan nan nan nan nan nan nan nan nan nan nan nan nan nan nan nan nan nan nan nan nan nan nan nan nan nan nan nan nan nan nan nan nan nan nan nan
nan 7 7 6 6 6 7 8 10 10 11 11 10 10 11 11 10 7 7 7 7 6 8 8 7 4 5 8 10 10 9 8 8 8 9 8 8 7 7 8 8 9 8 7 7 7 8 8 7 7 7 7 7 7 7 7 7 6 6 6 7 7 7 6 6 6 6 7 7 7 7 7 8 7 6 6 6 6 7 9 10 10 9 8 5 4 6 7 8 8 10 12 10 10 11 11 15 19 20 18 16 13 nan
nan 7 7 7 7 7 8 9 11 10 10 10 9 7 9 10 8 4 4 5 6 8 8 6 4 3 5 8 9 9 8 7 7 8 8 8 7 7 7 8 8 7 7 7 8 8 8 8 8 8 8 8 7 7 8 7 7 7 7 6 6 7 7 6 6 5 6 7 7 7 7 6 7 8 7 6 6 6 6 8 9 9 9 8 7 4 4 6 7 6 9 14 14 13 9 6 7 15 19 18 14 11 nan
nan 6 8 8 7 8 9 10 11 10 8 6 5 4 5 7 5 3 4 6 8 10 8 5 3 5 7 8 9 8 7 7 7 8 8 8 8 8 8 7 7 7 7 8 9 8 7 7 7 7 8 8 7 8 8 8 7 7 7 7 7 7 7 7 6 6 6 6 6 7 7 6 7 7 7 7 7 6 6 7 7 7 8 8 8 5 4 8 9 5 5 10 14 16 12 8 6 9 12 12 9 10 nan
nan 6 8 9 8 8 9 9 9 8 6 5 4 4 4 5 5 6 8 9 9 9 7 5 5 6 8 8 7 8 8 7 7 7 8 8 8 9 8 7 8 8 8 7 8 8 8 8 8 7 7 7 7 8 8 8 7 7 7 7 7 7 7 7 7 7 7 7 6 6 7 7 6 6 6 6 7 7 6 7 6 7 9 8 9 6 5 8 9 7 4 5 9 13 13 10 9 7 8 8 3 7 nan
nan 5 7 9 8 8 9 9 8 6 4 6 7 8 7 7 8 10 10 9 9 9 8 7 7 7 7 7 7 7 8 8 7 8 8 7 8 9 8 8 8 9 8 7 6 8 9 9 9 8 9 8 8 7 8 8 9 8 8 8 8 7 7 7 8 8 7 7 7 7 7 7 6 6 6 6 7 7 7 7 7 7 7 8 8 6 6 7 8 8 7 6 7 7 8 10 11 9 9 8 3 4 nan
nan 5 5 7 7 9 9 9 8 6 6 8 8 8 8 9 10 10 9 9 9 8 8 8 8 8 8 7 7 7 8 9 8 7 7 7 8 9 9 9 9 10 9 8 8 7 7 8 9 10 10 9 8 7 8 8 9 10 9 8 8 8 7 7 8 8 8 7 7 7 7 7 7 6 6 6 6 7 7 7 7 8 8 7 7 6 6 7 7 7 7 7 7 6 6 8 10 11 10 9 6 3 nan
nan 6 6 7 8 10 9 7 5 6 8 8 8 8 9 10 10 9 8 9 8 7 7 8 8 8 7 8 8 7 8 8 8 7 8 8 8 8 9 9 9 10 10 9 9 9 8 9 9 10 9 8 7 8 8 8 8 9 9 10 9 8 7 7 8 8 8 7 7 7 7 8 7 6 6 6 7 7 7 7 7 8 8 7 7 6 7 8 7 6 6 6 7 8 7 6 9 11 9 9 8 5 nan
nan 6 7 7 8 8 8 6 4 6 8 8 7 8 9 9 8 8 8 8 7 6 7 8 8 8 8 8 8 8 8 8 8 8 9 9 7 7 8 8 8 8 8 9 9 10 10 10 10 9 8 8 7 8 8 8 9 9 10 10 9 9 8 8 7 8 8 8 7 7 7 7 8 7 7 7 7 7 7 7 7 8 8 7 7 7 7 7 7 6 5 6 8 9 8 6 8 9 8 7 9 10 nan
nan 6 7 6 6 6 7 7 7 6 7 7 8 8 8 9 8 7 7 7 6 6 7 8 8 8 8 8 9 9 9 8 8 8 8 9 8 8 8 8 8 8 7 7 8 9 9 9 8 8 8 8 8 8 8 9 9 9 8 9 10 9 8 8 8 8 8 8 7 7 7 7 8 8 8 7 7 7 7 7 7 8 7 7 6 7 7 7 7 7 7 7 8 8 8 7 7 8 8 8 9 10 nan
nan 7 6 5 6 6 6 6 7 6 6 7 7 7 8 8 8 8 8 8 7 7 8 8 8 8 8 9 9 9 9 9 9 8 8 8 9 9 9 9 9 8 8 7 7 7 8 8 8 8 8 8 8 8 8 8 8 8 7 9 11 11 9 8 8 8 8 7 7 7 7 8 8 8 8 7 7 6 6 7 7 7 7 7 7 7 7 7 7 7 7 7 6 7 9 8 7 7 8 9 8 7 nan
nan 7 5 5 5 5 5 5 6 6 6 7 5 6 8 9 8 7 8 7 7 8 8 8 8 8 8 8 9 10 10 9 9 9 8 7 8 9 10 9 9 8 8 7 7 5 6 9 9 9 8 8 8 8 8 8 7 7 8 9 10 11 10 8 7 8 9 8 7 8 8 8 8 8 8 8 7 6 7 7 7 7 7 8 7 7 7 7 7 8 8 7 6 8 8 8 7 7 8 9 8 6 nan
nan 8 5 6 6 5 4 5 5 6 5 7 5 6 8 9 7 7 7 7 7 7 8 8 8 8 8 7 8 10 10 10 9 8 7 7 8 9 9 9 8 7 6 7 6 5 6 9 10 9 7 8 8 8 8 7 7 7 8 9 9 11 11 9 7 8 9 8 8 8 8 8 8 9 9 8 7 7 7 7 7 7 7 8 7 7 7 8 8 8 7 7 7 8 8 8 7 7 8 9 8 8 nan
nan 8 7 7 7 6 5 6 6 7 6 5 4 7 8 8 8 8 7 8 8 8 8 8 8 8 8 8 7 9 10 9 9 9 8 8 8 9 8 8 8 8 6 6 6 6 7 9 11 10 9 8 7 8 8 7 7 7 8 9 9 9 11 10 9 8 8 8 8 8 8 7 7 8 9 9 8 7 7 7 7 7 8 8 8 8 8 8 7 7 7 7 8 8 8 8 7 7 7 8 8 9 nan
nan 8 7 7 6 4 5 8 8 7 7 6 5 7 8 8 9 10 8 7 8 9 9 8 8 8 9 9 8 9 11 10 8 8 9 9 8 9 9 8 8 8 7 7 8 8 8 9 10 10 9 8 8 9 10 8 7 7 8 8 8 8 9 10 10 9 8 8 8 8 8 8 7 7 8 9 8 7 7 7 7 7 8 8 8 8 8 7 7 6 6 6 7 8 8 7 7 6 7 7 8 8 nan
nan 10 8 7 6 6 6 6 7 7 8 8 8 8 8 8 8 9 9 8 8 9 9 8 8 8 9 10 10 10 11 10 8 8 9 9 10 9 8 7 7 7 7 7 8 9 9 8 9 9 9 9 9 10 10 9 7 7 7 8 8 8 9 9 10 10 10 9 8 8 9 8 8 7 8 9 8 8 7 7 7 7 7 8 8 8 8 8 8 8 7 7 7 7 7 7 6 6 6 6 7 8 nan
nan 12 12 10 8 7 7 7 7 7 8 8 8 9 9 7 7 8 8 8 8 8 8 8 8 8 9 10 10 10 10 9 9 9 8 9 10 9 8 8 7 6 5 5 7 8 8 8 8 8 9 9 9 10 10 9 8 7 8 8 8 8 9 9 9 9 10 10 9 8 9 9 9 8 8 8 8 8 8 8 7 7 7 8 9 8 8 8 9 9 9 8 8 8 7 7 7 6 6 6 7 7 nan
nan 12 12 11 10 10 9 9 9 7 7 7 8 9 9 8 7 7 7 7 8 8 9 9 8 7 8 8 8 9 9 9 9 8 8 9 9 9 7 7 7 6 4 5 6 7 7 7 6 6 7 8 8 9 9 9 9 9 8 9 9 9 9 9 9 9 9 10 9 9 9 9 9 9 8 8 8 8 8 8 9 8 7 8 9 9 8 8 9 10 9 9 10 9 9 8 7 7 6 6 7 7 nan
nan 8 9 10 9 12 13 11 8 7 6 6 6 8 8 8 8 7 7 7 7 8 9 9 8 8 8 8 8 9 10 10 9 8 9 9 10 8 6 6 7 6 5 6 7 8 8 7 6 5 5 6 7 8 8 9 9 9 9 10 10 10 9 9 9 9 9 9 9 10 10 10 10 10 9 9 9 8 8 8 9 9 8 8 8 8 8 8 8 9 9 9 9 10 9 9 9 8 7 7 7 7 nan
nan 5 5 6 6 9 11 10 8 7 7 6 5 6 8 8 8 8 7 7 7 8 9 9 8 8 8 9 10 11 11 11 10 9 10 10 10 8 7 7 7 7 8 9 10 12 11 9 7 6 6 7 8 8 8 9 9 9 10 10 10 9 9 9 9 9 10 10 9 9 10 10 9 10 10 10 9 9 8 9 9 9 9 8 8 8 8 7 7 8 8 8 8 9 9 9 9 9 8 8 8 7 nan
nan 5 5 4 3 5 7 7 7 7 6 5 6 7 8 8 8 8 8 7 7 8 9 9 8 7 8 10 11 12 11 11 10 10 10 9 9 8 8 8 8 8 9 10 12 14 13 11 9 8 8 9 9 9 9 9 9 9 9 8 7 7 8 8 9 8 9 9 9 8 8 9 9 9 9 9 9 8 8 8 9 8 8 8 7 8 8 8 7 7 8 8 8 8 8 8 8 8 9 9 8 7 nan
nan 7 6 5 4 5 6 6 6 6 5 6 7 7 8 8 9 9 8 8 8 8 9 10 9 7 7 8 9 10 10 9 9 9 9 8 8 9 9 9 9 9 9 9 10 11 11 10 10 9 9 9 9 9 9 9 9 8 7 7 7 7 8 8 7 7 8 7 7 8 8 9 9 8 7 7 7 6 6 6 7 7 7 6 6 6 9 9 7 6 7 8 9 9 8 8 7 7 7 9 9 7 nan
nan 8 8 8 7 6 6 7 7 7 6 6 6 7 8 8 9 9 9 9 9 8 9 10 9 8 6 6 7 8 8 7 7 8 8 8 9 10 10 10 10 9 9 9 9 8 9 9 9 8 9 9 9 9 9 9 9 9 8 8 8 9 8 7 6 7 6 6 7 9 10 9 8 7 7 6 6 6 5 4 4 4 5 6 6 6 7 9 9 6 5 7 9 9 8 8 7 7 8 9 9 7 nan
nan 8 9 9 9 7 7 8 9 8 7 7 6 6 8 8 9 10 11 10 9 8 8 9 9 8 6 6 5 6 7 7 7 8 7 9 10 11 11 11 11 11 10 9 9 8 9 8 9 8 9 9 9 9 9 9 9 9 9 9 9 9 9 8 8 8 7 8 9 10 10 9 7 6 7 7 6 6 6 5 4 5 6 7 7 8 8 9 10 7 5 7 9 10 9 8 7 7 9 10 9 7 nan
nan 11 10 10 10 10 9 9 9 8 8 7 7 7 8 9 10 11 12 11 10 8 8 8 8 8 7 6 6 6 7 8 7 7 7 8 9 10 12 12 12 11 10 9 9 9 8 8 9 9 9 9 9 9 9 9 9 9 8 9 9 9 9 9 9 9 10 9 9 9 8 7 6 6 7 7 7 6 6 6 7 7 8 7 7 8 9 10 11 9 6 6 8 9 9 9 8 8 9 9 8 7 nan
nan 12 12 11 11 12 11 10 10 9 9 8 8 8 8 9 10 12 12 11 10 9 10 9 9 8 7 6 6 6 7 7 7 7 8 8 9 10 11 11 11 10 10 9 9 9 8 8 8 9 9 9 9 9 8 9 8 8 8 8 9 8 8 9 9 9 10 9 9 8 7 7 7 7 7 7 8 7 7 7 8 8 8 8 7 7 8 9 11 10 7 6 7 9 8 8 8 9 10 8 7 6 nan
nan 10 11 11 11 11 11 11 11 10 10 9 8 8 8 9 10 11 10 9 10 11 11 10 10 8 7 7 7 6 7 8 9 9 9 9 9 9 10 10 9 10 10 10 10 9 8 8 8 9 10 9 9 8 9 9 9 8 8 8 8 8 8 9 9 9 9 9 8 8 9 9 9 8 8 8 9 10 9 9 8 9 8 8 8 9 9 8 9 9 7 6 6 8 8 7 8 9 9 8 7 6 nan
nan 8 9 11 11 11 11 11 11 11 11 11 10 9 10 9 10 9 8 9 10 10 9 9 9 8 8 9 9 9 10 10 10 10 10 9 9 9 9 10 10 10 10 10 10 9 8 7 7 8 8 8 8 8 9 9 9 8 9 8 9 9 9 9 8 9 9 9 9 9 9 9 9 9 9 9 9 9 10 9 8 8 8 8 8 9 9 7 7 7 7 7 7 7 6 6 7 9 9 8 9 7 nan
nan 8 9 10 11 12 11 12 12 12 11 11 11 10 10 11 11 10 9 8 9 9 8 7 8 8 9 10 11 12 12 11 10 10 10 9 9 8 9 10 10 10 10 10 9 9 8 7 6 7 7 8 8 10 10 9 9 8 8 9 9 10 9 8 8 8 8 9 9 10 9 9 9 9 10 10 9 9 9 9 9 8 8 8 9 9 8 7 7 7 7 8 8 9 9 8 7 7 7 6 8 9 nan
nan 9 9 9 9 10 11 12 12 12 11 10 9 9 10 11 11 11 10 9 10 9 8 7 7 8 8 10 11 12 12 11 10 9 10 9 8 8 8 8 9 10 11 10 9 9 8 7 7 7 7 8 9 10 9 8 8 9 8 8 7 7 7 7 7 8 8 8 9 9 9 9 10 10 11 10 9 9 9 10 10 8 8 9 9 9 9 8 9 8 7 9 9 10 10 9 9 7 5 5 6 8 nan
nan 10 9 9 9 9 10 11 11 11 10 9 9 9 8 8 9 10 10 10 10 10 10 9 8 8 8 9 10 11 11 10 9 9 10 10 9 8 8 8 8 8 9 10 9 9 9 8 8 8 9 9 9 8 7 6 6 6 6 5 5 6 7 8 9 10 9 8 8 8 9 10 10 11 11 9 9 9 10 10 10 10 10 9 9 9 10 10 10 9 7 8 9 10 9 8 8 8 7 6 5 6 nan
nan 10 10 10 10 10 10 10 10 11 11 11 10 9 8 8 8 9 9 9 10 11 11 10 9 8 8 7 7 8 8 8 9 10 10 10 10 9 9 9 9 8 7 8 9 9 9 9 8 8 10 10 9 8 6 5 4 4 5 5 6 7 8 10 11 11 9 8 7 7 8 8 9 9 9 10 10 10 9 10 10 11 11 10 9 9 10 10 11 10 7 8 9 10 10 11 10 8 6 6 5 4 nan
nan 10 11 11 10 9 9 9 9 11 11 11 10 10 10 9 9 9 9 9 10 11 11 10 9 8 7 7 7 8 8 8 9 9 10 11 11 10 8 9 9 10 9 9 9 10 9 9 9 8 9 9 8 6 6 6 7 7 7 8 9 9 10 10 9 8 7 7 7 7 7 7 8 8 9 10 10 10 9 10 10 11 11 11 11 11 10 10 9 8 8 8 8 7 8 10 10 7 3 3 3 3 nan
nan 9 9 10 11 11 10 9 9 9 10 10 10 10 9 9 9 9 10 10 11 11 10 9 8 8 8 9 9 9 10 10 9 8 9 10 11 10 8 8 8 10 11 12 12 11 10 10 9 9 8 7 6 6 6 8 9 9 10 10 10 10 10 9 7 6 7 7 7 7 7 8 8 9 9 9 9 9 9 9 10 11 11 11 11 12 13 11 8 7 7 7 7 7 6 6 8 7 3 1 2 5 nan
nan 9 9 10 12 13 12 10 8 7 8 9 9 9 9 9 9 9 9 9 10 10 10 10 10 9 8 9 9 9 10 9 9 8 9 9 9 9 9 8 8 8 9 10 10 11 10 10 10 10 9 8 6 6 8 9 10 10 10 10 9 9 7 7 7 6 7 7 7 8 8 8 8 8 8 8 7 7 7 7 7 8 8 9 10 10 13 14 11 8 7 5 4 6 6 6 7 7 6 4 1 4 nan
nan 11 11 12 12 13 11 9 7 7 8 8 9 9 10 10 10 9 8 9 9 9 10 10 10 10 8 7 7 7 9 9 9 9 9 9 10 10 10 9 8 7 8 8 8 9 9 10 9 9 9 8 7 7 8 9 10 10 9 8 7 7 6 6 7 7 6 6 7 8 8 7 7 6 6 6 6 6 6 6 6 6 6 7 7 7 10 12 11 9 8 6 4 3 8 9 10 10 10 8 3 0 nan
nan 12 12 12 11 10 9 7 6 7 8 8 9 9 10 11 10 9 8 9 9 10 10 10 10 9 8 8 8 8 8 9 9 10 10 10 10 10 9 9 8 8 9 9 9 9 9 9 8 8 8 7 6 7 8 9 9 9 8 8 7 6 6 7 8 7 5 6 7 7 7 7 7 6 5 6 6 7 7 7 7 7 7 7 8 8 8 8 9 7 8 9 8 4 6 9 11 11 10 9 7 3 nan
nan 13 12 11 10 8 8 7 7 7 8 9 9 9 9 10 10 9 9 8 8 9 10 10 9 8 8 9 9 9 8 9 9 10 9 9 9 9 9 9 9 9 9 9 9 9 9 8 7 7 6 6 6 7 8 9 9 8 8 8 7 6 6 7 7 6 7 7 7 6 6 6 7 7 7 7 7 8 8 9 9 9 9 9 10 11 9 7 6 7 8 9 10 8 5 6 9 10 10 9 9 8 nan
nan 12 12 11 9 8 7 8 7 7 8 9 9 9 10 10 11 10 8 8 8 8 9 9 9 8 8 9 10 10 9 9 9 10 10 9 9 8 9 9 10 9 9 9 8 9 8 7 6 6 6 6 6 8 9 8 8 8 9 9 7 7 7 8 8 7 8 8 6 6 6 6 7 7 7 8 8 8 8 9 10 10 9 10 10 11 9 8 7 7 9 10 10 9 7 7 8 9 9 9 9 9 nan
nan 9 10 9 8 8 8 8 8 8 10 11 11 11 11 11 10 9 8 8 8 8 9 9 8 8 8 8 9 9 10 9 9 9 10 9 9 9 9 10 9 9 8 8 8 8 7 6 5 6 7 7 7 8 9 8 9 9 9 8 8 8 9 9 9 7 7 7 7 7 7 7 8 8 8 9 9 9 9 9 9 9 9 9 9 8 8 8 8 8 9 10 10 10 10 9 10 9 9 9 10 10 nan
nan 6 6 6 8 9 9 9 9 11 12 11 11 11 10 9 9 9 9 9 9 9 9 9 8 8 8 8 8 9 10 10 9 10 10 9 9 9 10 9 9 8 8 8 8 7 6 5 5 6 7 7 7 7 8 8 9 9 9 8 8 8 10 9 7 6 7 8 8 8 9 10 10 10 10 10 10 10 9 9 9 9 9 9 8 7 7 7 8 9 9 9 9 9 10 10 10 10 10 10 10 10 nan
nan 5 5 7 8 9 10 10 11 10 9 9 9 9 9 9 9 8 8 8 8 9 9 9 9 9 9 8 8 9 9 9 9 10 10 10 9 9 9 8 8 7 7 7 7 6 5 5 5 7 7 6 6 7 8 9 9 9 8 7 7 8 8 6 5 6 8 8 7 8 10 11 11 11 11 10 10 9 9 9 9 8 8 9 9 9 8 7 7 7 7 8 9 9 10 10 10 10 11 10 10 9 nan
nan 7 8 8 9 10 11 10 10 9 8 9 9 9 9 8 8 8 8 8 8 9 9 9 9 9 8 8 9 9 10 10 10 10 10 9 8 8 7 7 6 6 7 7 7 5 5 6 6 7 6 6 7 8 9 9 8 7 6 7 7 7 6 5 6 8 9 8 7 7 9 10 10 10 9 9 9 9 9 9 9 9 9 9 10 9 9 9 8 8 7 8 9 9 10 10 10 10 9 10 9 9 nan
nan 9 9 10 11 11 10 9 9 9 9 9 9 8 8 8 7 8 8 8 8 9 9 10 10 10 9 9 9 9 10 10 10 10 9 9 8 7 6 6 6 6 6 6 6 6 6 7 7 7 8 8 9 10 9 8 7 6 7 7 6 6 7 7 8 9 9 8 7 8 8 8 8 10 9 9 9 10 10 10 10 10 10 10 10 9 9 9 9 9 9 9 8 9 9 8 8 8 8 9 9 11 nan
nan 11 10 11 10 10 9 9 9 9 9 8 8 8 8 8 7 7 8 8 8 8 9 10 11 12 11 10 9 9 10 10 10 10 9 9 8 7 6 6 6 6 6 7 7 7 7 8 7 8 9 9 9 9 7 7 7 7 7 7 6 7 7 8 10 9 8 7 7 8 8 8 9 10 10 10 10 11 10 10 10 10 10 10 10 10 10 10 9 10 10 10 9 9 9 8 8 9 9 9 9 11 nan
nan 10 9 9 9 9 9 9 9 8 8 9 9 9 9 9 9 9 8 8 8 8 9 9 10 11 10 10 10 10 11 10 10 9 9 9 8 7 6 6 6 7 8 8 8 8 8 8 8 9 9 9 8 8 7 8 8 8 8 8 8 8 9 10 10 9 8 8 8 9 9 9 10 9 9 10 10 10 10 10 10 11 11 11 10 10 10 10 10 10 10 10 10 11 10 10 10 10 10 10 9 9 nan
nan 9 8 8 8 9 9 9 9 8 9 9 9 9 9 10 10 10 10 10 10 9 8 8 7 7 8 9 10 11 11 10 9 9 8 8 7 6 5 6 7 8 9 9 8 8 8 8 8 9 9 8 8 8 8 8 9 9 8 8 9 10 10 10 10 10 10 10 9 9 10 10 10 8 8 9 10 10 10 11 11 11 11 10 10 11 12 12 13 14 13 12 11 12 12 12 11 10 10 11 10 8 nan
nan 8 8 8 9 9 9 9 9 9 9 8 8 8 8 9 9 10 11 11 11 11 10 9 8 8 9 10 11 11 10 9 9 9 8 7 7 6 5 6 7 9 8 8 8 8 8 8 8 8 8 8 8 8 8 8 9 9 9 9 9 10 10 9 10 12 12 11 10 10 10 10 9 7 8 9 9 10 10 10 10 11 11 11 13 15 15 15 15 18 18 17 15 15 16 16 15 13 12 12 12 11 nan
nan 9 8 8 9 9 10 10 10 9 8 7 7 7 7 8 8 9 10 11 10 11 11 12 11 10 10 11 12 11 9 9 8 8 8 7 6 5 6 7 8 8 8 8 7 8 7 8 8 8 8 7 7 7 8 8 9 9 9 9 10 9 9 9 10 10 9 10 11 12 11 11 11 10 10 10 11 11 11 11 11 12 13 16 18 17 10 5 4 7 13 17 18 18 18 18 18 18 17 16 15 15 nan
nan 9 9 9 10 10 10 9 8 7 7 7 7 7 7 8 9 10 11 10 10 9 10 10 10 10 11 12 13 11 9 8 8 7 7 6 5 5 6 7 8 8 9 8 7 7 7 8 8 7 7 7 7 8 8 8 8 9 10 10 9 9 9 9 9 8 9 11 12 13 13 13 13 14 13 12 12 12 11 11 11 12 15 17 17 11 3 -1 -3 -5 -3 2 9 14 14 15 16 18 18 18 17 17 nan
nan 10 10 10 10 9 7 7 6 6 7 7 7 7 8 9 9 10 10 10 9 8 8 8 8 8 11 13 13 10 8 7 7 7 6 5 5 5 7 8 9 9 9 9 8 8 8 8 7 7 8 8 7 7 7 8 8 10 10 9 8 8 9 10 10 12 12 12 13 13 13 13 14 14 13 11 10 10 10 9 10 11 13 14 11 3 1 3 4 0 -5 -6 -3 5 8 10 11 14 14 14 15 16 nan
nan 10 10 9 8 7 6 6 7 7 8 8 9 9 9 9 10 10 10 9 9 8 9 9 8 9 11 12 12 10 7 7 7 7 6 6 6 7 8 8 8 9 10 9 8 8 8 7 8 8 8 7 7 7 8 8 9 10 9 8 8 9 10 11 13 14 14 15 16 15 13 12 11 9 9 10 10 10 9 9 10 11 11 9 4 -1 1 4 7 8 5 1 -2 -0 6 8 8 8 9 11 13 15 nan
nan 9 8 8 7 7 7 7 8 9 9 10 10 10 10 10 10 10 10 9 8 9 10 10 9 10 12 12 11 8 8 7 7 6 6 7 7 7 8 8 8 9 10 8 8 8 7 7 8 8 7 7 7 8 9 9 9 9 8 8 9 10 11 12 14 15 16 16 15 11 9 8 7 6 7 10 11 10 9 9 10 10 8 4 -2 -3 2 6 8 9 10 8 4 -2 5 11 13 11 12 12 13 14 nan
nan 8 8 8 7 7 8 8 9 9 10 10 10 10 10 10 10 10 9 8 9 9 10 10 10 11 11 10 8 7 8 8 8 7 6 7 8 7 7 8 9 10 9 8 8 7 7 7 7 7 7 8 9 10 10 10 9 9 9 10 10 10 11 12 13 13 12 10 6 3 5 6 7 9 10 10 10 8 9 10 10 8 7 5 2 3 6 8 9 10 11 11 9 1 1 7 13 15 14 13 12 12 nan
nan 8 8 8 8 8 8 9 10 11 11 12 11 11 11 11 11 10 8 8 9 10 10 10 11 11 10 8 8 7 8 8 8 7 6 6 6 8 9 9 10 11 10 9 8 6 6 7 7 7 8 9 10 10 9 9 9 9 9 10 11 11 12 12 11 8 5 3 1 3 6 7 9 11 11 10 9 9 9 9 9 8 7 7 7 8 9 9 10 10 11 12 12 8 3 4 8 10 10 10 11 10 nan
nan 9 8 8 9 11 12 12 12 12 13 13 13 12 13 14 12 9 8 9 10 10 10 10 9 10 9 8 8 8 8 8 8 7 7 7 7 9 10 10 11 11 9 8 7 6 6 7 7 8 9 9 10 8 8 8 9 9 10 11 12 13 13 11 9 6 4 4 5 7 7 7 8 9 9 9 9 9 9 8 8 9 8 8 7 7 9 10 11 12 12 12 13 12 9 7 7 8 8 8 8 7 nan
nan 8 8 8 10 11 13 13 12 11 12 12 12 12 13 13 11 7 8 9 9 9 8 7 7 7 7 7 7 7 6 6 7 7 7 8 8 10 11 11 11 10 9 7 6 6 6 7 7 8 9 9 9 8 9 9 10 10 11 12 12 12 12 10 8 8 8 8 8 9 9 8 8 9 9 8 7 7 7 8 9 11 13 11 9 9 10 11 12 13 13 14 14 14 12 10 8 8 10 10 10 10 nan
nan 7 8 9 9 10 10 11 11 11 10 10 10 11 11 11 9 6 6 7 8 8 9 7 7 7 8 8 8 7 6 5 5 6 6 7 9 10 11 11 11 10 8 6 5 5 6 7 8 9 10 11 10 10 10 10 10 11 11 11 12 13 12 10 9 9 10 10 11 11 11 11 12 13 11 10 8 7 8 8 10 14 18 15 10 8 10 11 12 12 13 13 14 14 16 16 14 10 10 12 13 14 nan
nan nan nan nan nan nan nan nan nan nan nan nan nan nan nan nan nan nan nan nan nan nan nan nan nan nan nan nan nan nan nan nan nan nan nan nan nan nan nan nan nan nan nan nan nan nan nan nan nan nan nan nan nan nan nan nan nan nan nan nan nan nan nan nan nan nan nan nan nan nan nan nan nan nan nan nan nan nan nan nan nan nan nan nan nan nan nan nan nan nan nan nan nan nan nan nan nan nan nan nan nan nan nan
CAPE
nan nan nan nan nan nan nan nan nan nan nan nan nan nan nan nan nan nan nan nan nan nan nan nan nan nan nan nan nan nan nan nan nan nan nan nan nan nan nan nan nan nan nan nan nan nan nan nan nan nan nan nan nan nan nan nan nan nan nan nan nan nan nan nan nan nan nan nan nan nan nan nan nan nan nan nan nan nan nan nan nan nan nan nan nan 2 nan nan 2 5 9 9 9 17 40 124 124 107 81 64 64 40 36
nan nan nan nan nan nan nan nan nan nan nan nan nan nan nan nan nan nan nan nan nan nan nan nan nan nan nan nan nan nan nan nan nan nan nan nan nan nan nan nan nan nan nan nan nan nan nan nan nan nan nan nan nan nan nan nan nan nan nan nan nan nan nan nan nan nan nan nan nan nan nan nan nan nan nan nan nan nan nan nan nan nan nan nan nan nan nan nan nan nan 1 1 2 5 17 35 35 62 109 86 86 42 14
nan nan nan nan nan nan nan nan nan nan nan nan nan nan nan nan nan nan nan nan nan nan nan nan nan nan nan nan nan nan nan nan nan nan nan nan nan nan nan nan nan nan nan nan nan nan nan nan nan nan nan nan nan nan nan nan nan nan nan nan nan nan nan nan nan nan nan nan nan nan nan nan nan nan nan nan nan nan nan nan nan nan nan nan nan nan nan nan nan nan nan nan nan 1 5 8 8 19 39 117 117 63 3
nan nan nan nan nan nan nan nan nan nan nan nan nan nan nan nan nan nan nan nan nan nan nan nan nan nan nan nan nan nan nan nan nan nan nan nan nan nan nan nan nan nan nan nan nan nan nan nan nan nan nan nan nan nan nan nan nan nan nan nan nan nan nan nan nan nan nan nan nan nan nan nan nan nan nan nan nan nan nan nan nan nan nan nan nan nan nan nan nan nan nan nan nan 0 5 5 5 8 17 42 42 63 37
nan nan nan nan nan nan nan nan nan nan nan nan nan nan nan nan nan nan nan nan nan nan nan nan nan nan nan nan nan nan nan nan nan nan nan nan nan nan nan nan nan nan nan nan nan nan nan nan nan nan nan nan nan nan nan nan nan nan nan nan nan nan nan nan nan nan nan nan nan nan nan nan nan nan nan nan nan nan nan nan nan nan nan nan nan nan nan nan nan nan nan nan nan nan 7 7 7 6 8 11 11 21 45
nan nan nan nan nan nan nan nan nan nan nan nan nan nan nan nan nan nan nan nan nan nan nan nan nan nan nan nan nan nan nan nan nan nan nan nan nan nan nan nan nan nan nan nan nan nan nan nan nan nan nan nan nan nan nan nan nan nan nan nan nan nan nan nan nan nan nan nan nan nan nan nan nan nan nan nan nan nan nan nan nan nan nan nan nan nan nan nan nan nan nan nan nan nan 1 5 5 7 6 4 4 3 17
nan nan nan nan nan nan nan nan nan nan nan nan nan nan nan nan nan nan nan nan nan nan nan nan nan nan nan nan nan nan nan nan nan nan nan nan nan nan nan nan nan nan nan nan nan nan nan nan nan nan nan nan nan nan nan nan nan nan nan nan nan nan nan nan nan nan nan nan nan nan nan nan nan nan nan nan nan nan nan nan nan nan nan nan nan nan nan nan nan nan nan nan nan nan nan 0 0 5 9 7 7 4 8
nan nan nan nan nan nan nan nan nan nan nan nan nan nan nan nan nan nan nan nan nan nan nan nan nan nan nan nan nan nan nan nan nan nan nan nan nan nan nan nan nan nan nan nan nan nan nan nan nan nan nan nan nan nan nan nan nan nan nan nan nan nan nan nan nan nan nan nan nan nan nan nan nan nan nan nan nan nan nan nan nan nan nan nan nan nan nan nan nan nan nan nan nan nan nan nan nan 0 6 8 8 8 11
nan nan nan nan nan nan nan nan nan nan nan nan nan nan nan nan nan nan nan nan nan nan nan nan nan nan nan nan nan nan nan nan nan nan nan nan nan nan nan nan nan nan nan nan nan nan nan nan nan nan nan nan nan nan nan nan nan nan nan nan nan nan nan nan nan nan nan nan nan nan nan nan nan nan nan nan nan nan nan nan nan nan nan nan nan nan nan nan nan nan nan nan nan nan nan nan nan nan 0 4 4 9 11
nan nan nan nan nan nan nan nan nan nan nan nan nan nan nan nan nan nan nan nan nan nan nan nan nan nan nan nan nan nan nan nan nan nan nan nan nan nan nan nan nan nan nan nan nan nan nan nan nan nan nan nan nan nan nan nan nan nan nan nan nan nan nan nan nan nan nan nan nan nan nan nan nan nan nan nan nan nan nan nan nan nan nan nan nan nan nan nan nan nan nan nan nan nan nan nan nan nan nan nan nan 5 7
nan nan nan nan nan nan nan nan nan nan nan nan nan nan nan nan nan nan nan nan nan nan nan nan nan nan nan nan nan nan nan nan nan nan nan nan nan nan nan nan nan nan nan nan nan nan nan nan nan nan nan nan nan nan nan nan nan nan nan nan nan nan nan nan nan nan nan nan nan nan nan nan nan nan nan nan nan nan nan nan nan nan nan nan nan nan nan nan nan nan nan nan nan nan nan nan nan nan nan nan nan nan 2
nan nan nan nan nan nan nan nan nan nan nan nan nan nan nan nan nan nan nan nan nan nan nan nan nan nan nan nan nan nan nan nan nan nan nan nan nan nan nan nan nan nan nan nan nan nan nan nan nan nan nan nan nan nan nan nan nan nan nan nan nan nan nan nan nan nan nan nan nan nan nan nan nan nan nan nan nan nan nan nan nan nan nan nan nan nan nan nan nan nan nan nan nan nan nan nan nan nan nan nan nan nan nan
nan nan nan nan nan nan nan nan nan nan nan nan nan nan nan nan nan nan nan nan nan nan nan nan nan nan nan nan nan nan nan nan nan nan nan nan nan nan nan nan nan nan nan nan nan nan nan nan nan nan nan nan nan nan nan nan nan nan nan nan nan nan nan nan nan nan nan nan nan nan nan nan nan nan nan nan nan nan nan nan nan nan nan nan nan nan nan nan nan nan nan nan nan nan nan nan nan nan nan nan nan nan nan
nan nan nan nan nan nan nan nan nan nan nan nan nan nan nan nan nan nan nan nan nan nan nan nan nan nan nan nan nan nan nan nan nan nan nan nan nan nan nan nan nan nan nan nan nan nan nan nan nan nan nan nan nan nan nan nan nan nan nan nan nan nan nan nan nan nan nan nan nan nan nan nan nan nan nan nan nan nan nan nan nan nan nan nan nan nan nan nan nan nan nan nan nan nan nan nan nan nan nan nan nan nan nan
nan nan nan nan nan nan nan nan nan nan nan nan nan nan nan nan nan nan nan nan nan nan nan nan nan nan nan nan nan nan nan nan nan nan nan nan nan nan nan nan nan nan nan nan nan nan nan nan nan nan nan nan nan nan nan nan nan nan nan nan nan nan nan nan nan nan nan nan nan nan nan nan nan nan nan nan nan nan nan nan nan nan nan nan nan nan nan nan nan nan nan nan nan nan nan nan nan nan nan nan nan nan nan
nan nan nan nan nan nan nan nan nan nan nan nan nan nan nan nan nan nan nan nan nan nan nan nan nan nan nan nan nan nan nan nan nan nan nan nan nan nan nan nan nan nan nan nan nan nan nan nan nan nan nan nan nan nan nan nan nan nan nan nan nan nan nan nan nan nan nan nan nan nan nan nan nan nan nan nan nan nan nan nan nan nan nan nan nan nan nan nan nan nan nan nan nan nan nan nan nan nan nan nan nan nan nan
nan nan nan nan nan nan nan nan nan nan nan nan nan nan nan nan nan nan nan nan nan nan nan nan nan nan nan nan nan nan nan nan nan nan nan nan nan nan nan nan nan nan nan nan nan nan nan nan nan nan nan nan nan nan nan nan nan nan nan nan nan nan nan nan nan nan nan nan nan nan nan nan nan nan nan nan nan nan nan nan nan nan nan nan nan nan nan nan nan nan nan nan nan nan nan nan nan nan nan nan nan nan nan
nan nan nan nan nan nan nan nan nan nan nan nan nan nan nan nan nan nan nan nan nan nan nan nan nan nan nan nan nan nan nan nan nan nan nan nan nan nan nan nan nan nan nan nan nan nan nan nan nan nan nan nan nan nan nan nan nan nan nan nan nan nan nan nan nan nan nan nan nan nan nan nan nan nan nan nan nan nan nan nan nan nan nan nan nan nan nan nan nan nan nan nan nan nan nan nan nan nan nan nan nan nan nan
nan nan nan nan nan nan nan nan nan nan nan nan nan nan nan nan nan nan nan nan nan nan nan nan nan nan nan nan nan nan nan nan nan nan nan nan nan nan nan nan nan nan nan nan nan nan nan nan nan nan nan nan nan nan nan nan nan nan nan nan nan nan nan nan nan nan nan nan nan nan nan nan nan nan nan nan nan nan nan nan nan nan nan nan nan nan nan nan nan nan nan nan nan nan nan nan nan nan nan nan nan nan nan
nan nan nan nan nan nan nan nan nan nan nan nan nan nan nan nan nan nan nan nan nan nan nan nan nan nan nan nan nan nan nan nan nan nan nan nan nan nan nan nan nan nan nan nan nan nan nan nan nan nan nan nan nan nan nan nan nan nan nan nan nan nan nan nan nan nan nan nan nan nan nan nan nan nan nan nan nan nan nan nan nan nan nan nan nan nan nan nan nan nan nan nan nan nan nan nan nan nan nan nan nan nan nan
nan nan nan nan nan nan nan nan nan nan nan nan nan nan nan nan nan nan nan nan nan nan nan nan nan nan nan nan nan nan nan nan nan nan nan nan nan nan nan nan nan nan nan nan nan nan nan nan nan nan nan nan nan nan nan nan nan nan nan nan nan nan nan nan nan nan nan nan nan nan nan nan nan nan nan nan nan nan nan nan nan nan nan nan nan nan nan nan nan nan nan nan nan nan nan nan nan nan nan nan nan nan nan
nan nan nan nan nan nan nan nan nan nan nan nan nan nan nan nan nan nan nan nan nan nan nan nan nan nan nan nan nan nan nan nan nan nan nan nan nan nan nan nan nan nan nan nan nan nan nan nan nan nan nan nan nan nan nan nan nan nan nan nan nan nan nan nan nan nan nan nan nan nan nan nan nan nan nan nan nan nan nan nan nan nan nan nan nan nan nan nan nan nan nan nan nan nan nan nan nan nan nan nan nan nan nan
nan nan nan nan nan nan nan nan nan nan nan nan nan nan nan nan nan nan nan nan nan nan nan nan nan nan nan nan nan nan nan nan nan nan nan nan nan nan nan nan nan nan nan nan nan nan nan nan nan nan nan nan nan nan nan nan nan nan nan nan nan nan nan nan nan nan nan nan nan nan nan nan nan nan nan nan nan nan nan nan nan nan nan nan nan nan nan nan nan nan nan nan nan nan nan nan nan nan nan nan nan nan nan
nan nan nan nan nan nan nan nan nan nan nan nan nan nan nan nan nan nan nan nan nan nan nan nan nan nan nan nan nan nan nan nan nan nan nan nan nan nan nan nan nan nan nan nan nan nan nan nan nan nan nan nan nan nan nan nan nan nan nan nan nan nan nan nan nan nan nan nan nan nan nan nan nan nan nan nan nan nan nan nan nan nan nan nan nan nan nan nan nan nan nan nan nan nan nan nan nan nan nan nan nan nan nan
nan nan nan nan nan nan nan nan nan nan nan nan nan nan nan nan nan nan nan nan nan nan nan nan nan nan nan nan nan nan nan nan nan nan nan nan nan nan nan nan nan nan nan nan nan nan nan nan nan nan nan nan nan nan nan nan nan nan nan nan nan nan nan nan nan nan nan nan nan nan nan nan nan nan nan nan nan nan nan nan nan nan nan nan nan nan nan nan nan nan nan nan nan nan nan nan nan nan nan nan nan nan nan
nan nan nan nan nan nan nan nan nan nan nan nan nan nan nan nan nan nan nan nan nan nan nan nan nan nan nan nan nan nan nan nan nan nan nan nan nan nan nan nan nan nan nan nan nan nan nan nan nan nan nan nan nan nan nan nan nan nan nan nan nan nan nan nan nan nan nan nan nan nan nan nan nan nan nan nan nan nan nan nan nan nan nan nan nan nan nan nan nan nan nan nan nan nan nan nan nan nan nan nan nan nan nan
nan nan nan nan nan nan nan nan nan nan nan nan nan nan nan nan nan nan nan nan nan nan nan nan nan nan nan nan nan nan nan nan nan nan nan nan nan nan nan nan nan nan nan nan nan nan nan nan nan nan nan nan nan nan nan nan nan nan nan nan nan nan nan nan nan nan nan nan nan nan nan nan nan nan nan nan nan nan nan nan nan nan nan nan nan nan nan nan nan nan nan nan nan nan nan nan nan nan nan nan nan nan nan
nan nan nan nan nan nan nan nan nan nan nan nan nan nan nan nan nan nan nan nan nan nan nan nan nan nan nan nan nan nan nan nan nan nan nan nan nan nan nan nan nan nan nan nan nan nan nan nan nan nan nan nan nan nan nan nan nan nan nan nan nan nan nan nan nan nan nan nan nan nan nan nan nan nan nan nan nan nan nan nan nan nan nan nan nan nan nan nan nan nan nan nan nan nan nan nan nan nan nan nan nan nan nan
nan nan nan nan nan nan nan nan nan nan nan nan nan nan nan nan nan nan nan nan nan nan nan nan nan nan nan nan nan nan nan nan nan nan nan nan nan nan nan nan nan nan nan nan nan nan nan nan nan nan nan nan nan nan nan nan nan nan nan nan nan nan nan nan nan nan nan nan nan nan nan nan nan nan nan nan nan nan nan nan nan nan nan nan nan nan nan nan nan nan nan nan nan nan nan nan nan nan nan nan nan nan nan
nan nan nan nan nan nan nan nan nan nan nan nan nan nan nan nan nan nan nan nan nan nan nan nan nan nan nan nan nan nan nan nan nan nan nan nan nan nan nan nan nan nan nan nan nan nan nan nan nan nan nan nan nan nan nan nan nan nan nan nan nan nan nan nan nan nan nan nan nan nan nan nan nan nan nan nan nan nan nan nan nan nan nan nan nan nan nan nan nan nan nan nan nan nan nan nan nan nan nan nan nan nan nan
nan nan nan nan nan nan nan nan nan nan nan nan nan nan nan nan nan nan nan nan nan nan nan nan nan nan nan nan nan nan nan nan nan nan nan nan nan nan nan nan nan nan nan nan nan nan nan nan nan nan nan nan nan nan nan nan nan nan nan nan nan nan nan nan nan nan nan nan nan nan nan nan nan nan nan nan nan nan nan nan nan nan nan nan nan nan nan nan nan nan nan nan nan nan nan nan nan nan nan nan nan nan nan
nan nan nan nan nan nan nan nan nan nan nan nan nan nan nan nan nan nan nan nan nan nan nan nan nan nan nan nan nan nan nan nan nan nan nan nan nan nan nan nan nan nan nan nan nan nan nan nan nan nan nan nan nan nan nan nan nan nan nan nan nan nan nan nan nan nan nan nan nan nan nan nan nan nan nan nan nan nan nan nan nan nan nan nan nan nan nan nan nan nan nan nan nan nan nan nan nan nan nan nan nan nan nan
nan nan nan nan nan nan nan nan nan nan nan nan nan nan nan nan nan nan nan nan nan nan nan nan nan nan nan nan nan nan nan nan nan nan nan nan nan nan nan nan nan nan nan nan nan nan nan nan nan nan nan nan nan nan nan nan nan nan nan nan nan nan nan nan nan nan nan nan nan nan nan nan nan nan nan nan nan nan nan nan nan nan nan nan nan nan nan nan nan nan nan nan nan nan nan nan nan nan nan nan nan nan nan
nan nan nan nan nan nan nan nan nan nan nan nan nan nan nan nan nan nan nan nan nan nan nan nan nan nan nan nan nan nan nan nan nan nan nan nan nan nan nan nan nan nan nan nan nan nan nan nan nan nan nan nan nan nan nan nan nan nan nan nan nan nan nan nan nan nan nan nan nan nan nan nan nan nan nan nan nan nan nan nan nan nan nan nan nan nan nan nan nan nan nan nan nan nan nan nan nan nan nan nan nan nan nan
nan nan nan nan nan nan nan nan nan nan nan nan nan nan nan nan nan nan nan nan nan nan nan nan nan nan nan nan nan nan nan nan nan nan nan nan nan nan nan nan nan nan nan nan nan nan nan nan nan nan nan nan nan nan nan nan nan nan nan nan nan nan nan nan nan nan nan nan nan nan nan nan nan nan nan nan nan nan nan nan nan nan nan nan nan nan nan nan nan nan nan nan nan nan nan nan nan nan nan nan nan nan nan
nan nan nan nan nan nan nan nan nan nan nan nan nan nan nan nan nan nan nan nan nan nan nan nan nan nan nan nan nan nan nan nan nan nan nan nan nan nan nan nan nan nan nan nan nan nan nan nan nan nan nan nan nan nan nan nan nan nan nan nan nan nan nan nan nan nan nan nan nan nan nan nan nan nan nan nan nan nan nan nan nan nan nan nan nan nan nan nan nan nan nan nan nan nan nan nan nan nan nan nan nan nan nan
nan nan nan nan nan nan nan nan nan nan nan nan nan nan nan nan nan nan nan nan nan nan nan nan nan nan nan nan nan nan nan nan nan nan nan nan nan nan nan nan nan nan nan nan nan nan nan nan nan nan nan nan nan nan nan nan nan nan nan nan nan nan nan nan nan nan nan nan nan nan nan nan nan nan nan nan nan nan nan nan nan nan nan nan nan nan nan nan nan nan nan nan nan nan nan nan nan nan nan nan nan nan nan
nan nan nan nan nan nan nan nan nan nan nan nan nan nan nan nan nan nan nan nan nan nan nan nan nan nan nan nan nan nan nan nan nan nan nan nan nan nan nan nan nan nan nan nan nan nan nan nan nan nan nan nan nan nan nan nan nan nan nan nan nan nan nan nan nan nan nan nan nan nan nan nan nan nan nan nan nan nan nan nan nan nan nan nan nan nan nan nan nan nan nan nan nan nan nan nan nan nan nan nan nan nan nan
nan nan nan nan nan nan nan nan nan nan nan nan nan nan nan nan nan nan nan nan nan nan nan nan nan nan nan nan nan nan nan nan nan nan nan nan nan nan nan nan nan nan nan nan nan nan nan nan nan nan nan nan nan nan nan nan nan nan nan nan nan nan nan nan nan nan nan nan nan nan nan nan nan nan nan nan nan nan nan nan nan nan nan nan nan nan nan nan nan nan nan nan nan nan nan nan nan nan nan nan nan nan nan
nan nan nan nan nan nan nan nan nan nan nan nan nan nan nan nan nan nan nan nan nan nan nan nan nan nan nan nan nan nan nan nan nan nan nan nan nan nan nan nan nan nan nan nan nan nan nan nan nan nan nan nan nan nan nan nan nan nan nan nan nan nan nan nan nan nan nan nan nan nan nan nan nan nan nan nan nan nan nan nan nan nan nan nan nan nan nan nan nan nan nan nan nan nan nan nan nan nan nan nan nan nan nan
nan nan nan nan nan nan nan nan nan nan nan nan nan nan nan nan nan nan nan nan nan nan nan nan nan nan nan nan nan nan nan nan nan nan nan nan nan nan nan nan nan nan nan nan nan nan nan nan nan nan nan nan nan nan nan nan nan nan nan nan nan nan nan nan nan nan nan nan nan nan nan nan nan nan nan nan nan nan nan nan nan nan nan nan nan nan nan nan nan nan nan nan nan nan nan nan nan nan nan nan nan nan nan
nan nan nan nan nan nan nan nan nan nan nan nan nan nan nan nan nan nan nan nan nan nan nan nan nan nan nan nan nan nan nan nan nan nan nan nan nan nan nan nan nan nan nan nan nan nan nan nan nan nan nan nan nan nan nan nan nan nan nan nan nan nan nan nan nan nan nan nan nan nan nan nan nan nan nan nan nan nan nan nan nan nan nan nan nan nan nan nan nan nan nan nan nan nan nan nan nan nan nan nan nan nan nan
nan nan nan nan nan nan nan nan nan nan nan nan nan nan nan nan nan nan nan nan nan nan nan nan nan nan nan nan nan nan nan nan nan nan nan nan nan nan nan nan nan nan nan nan nan nan nan nan nan nan nan nan nan nan nan nan nan nan nan nan nan nan nan nan nan nan nan nan nan nan nan nan nan nan nan nan nan nan nan nan nan nan nan nan nan nan nan nan nan nan nan nan nan nan nan nan nan nan nan 0 0 0 nan
nan nan nan nan nan nan nan nan nan nan nan nan nan nan nan nan nan nan nan nan nan nan nan nan nan nan nan nan nan nan nan nan nan nan nan nan nan nan nan nan nan nan nan nan nan nan nan nan nan nan nan nan nan nan nan nan nan nan nan nan nan nan nan nan nan nan nan nan nan nan nan nan nan nan nan nan nan nan nan nan nan nan nan nan nan nan nan nan nan nan nan nan nan nan nan nan nan 0 2 3 3 3 3
nan nan nan nan nan nan nan nan nan nan nan nan nan nan nan nan nan nan nan nan nan nan nan nan nan nan nan nan nan nan nan nan nan nan nan nan nan nan nan nan nan nan nan nan nan nan nan nan nan nan nan nan nan nan nan nan nan nan nan nan nan nan nan nan nan nan nan nan nan nan nan nan nan nan nan nan nan nan nan nan nan nan nan nan nan nan nan nan nan nan nan nan nan nan nan nan nan 0 2 3 3 5 6
nan nan nan nan nan nan nan nan nan nan nan nan nan nan nan nan nan nan nan nan nan nan nan nan nan nan nan nan nan nan nan nan nan nan nan nan nan nan nan nan nan nan nan nan nan nan nan nan nan nan nan nan nan nan nan nan nan nan nan nan nan nan nan nan nan nan nan nan nan nan nan nan nan nan nan nan nan nan nan nan nan nan nan nan nan nan nan nan nan nan nan nan nan nan nan nan nan nan 0 3 3 3 7
nan nan nan nan nan nan nan nan nan nan nan nan nan nan nan nan nan nan nan nan nan nan nan nan nan nan nan nan nan nan nan nan nan nan nan nan nan nan nan nan nan nan nan nan nan nan nan nan nan nan nan nan nan nan nan nan nan nan nan nan nan nan nan nan nan nan nan nan nan nan nan nan nan nan nan nan nan nan nan nan nan nan nan nan nan nan nan nan nan nan nan nan nan nan 0 nan nan nan nan 1 1 2 3
nan nan nan nan nan nan nan nan nan nan nan nan nan nan nan nan nan nan nan nan nan nan nan nan nan nan nan nan nan nan nan nan nan nan nan nan nan nan nan nan nan nan nan nan nan nan nan nan nan nan nan nan nan nan nan nan nan nan nan nan nan nan nan nan nan nan nan nan nan nan nan nan nan nan nan nan nan nan nan nan nan nan nan nan nan nan nan nan nan nan 0 0 1 2 1 0 0 2 3 1 1 3 4
nan nan nan nan nan nan nan nan nan nan nan nan nan nan nan nan nan nan nan nan nan nan nan nan nan nan nan nan nan nan nan nan nan nan nan nan nan nan nan nan nan nan nan nan nan nan nan nan nan nan nan nan nan nan nan nan nan nan nan nan nan nan nan nan nan nan nan nan nan nan nan nan nan nan nan nan nan nan nan nan nan nan nan nan nan nan 1 1 3 2 3 3 4 5 6 4 4 6 6 7 7 6 7
nan nan nan nan nan nan nan nan nan nan nan nan nan nan nan nan nan nan nan nan nan nan nan nan nan nan nan nan nan nan nan nan nan nan nan nan nan nan nan nan nan nan nan nan nan nan nan nan nan nan nan nan nan nan nan nan nan nan nan nan nan nan nan nan nan nan nan nan nan nan nan nan nan nan nan nan nan nan nan nan nan nan nan 0 0 1 17 17 26 15 16 16 9 10 9 13 13 14 15 15 15 13 14
nan nan nan nan nan nan nan nan nan nan nan nan nan nan nan nan nan nan nan nan nan nan nan nan nan nan nan nan nan nan nan nan nan nan nan nan nan nan nan nan nan nan nan nan nan nan nan nan nan nan nan nan nan nan nan nan nan nan nan nan nan nan nan nan nan nan nan nan nan nan nan nan nan nan nan nan nan nan nan nan nan nan 0 0 0 8 18 18 24 31 29 29 13 13 14 14 14 18 24 28 28 27 26
nan nan nan nan nan nan nan nan nan nan nan nan nan nan nan nan nan nan nan nan nan nan nan nan nan nan nan nan nan nan nan nan nan nan nan nan nan nan nan nan nan nan nan nan nan nan nan nan nan nan nan nan nan nan nan nan nan nan nan nan nan nan nan nan nan nan nan nan nan nan nan nan nan nan nan nan nan nan nan nan nan 0 0 2 2 14 21 21 25 31 34 34 27 16 14 15 15 15 22 30 30 32 34
nan nan nan nan nan nan nan nan nan nan nan nan nan nan nan nan nan nan nan nan nan nan nan nan nan nan nan nan nan nan nan nan nan nan nan nan nan nan nan nan nan nan nan nan nan nan nan nan nan nan nan nan nan nan nan nan nan nan nan nan nan nan nan nan nan nan nan nan nan nan nan nan nan nan nan nan nan nan 0 0 0 nan nan 3 3 16 22 22 24 30 34 34 34 14 11 14 14 18 20 23 23 31 34
nan nan nan nan nan nan nan nan nan nan nan nan nan nan nan nan nan nan nan nan nan nan nan nan nan nan nan nan nan nan nan nan nan nan nan nan nan nan nan nan nan nan nan nan nan nan nan nan nan nan nan nan nan nan nan nan nan nan nan nan nan nan nan nan nan nan nan nan nan nan nan nan nan nan nan nan nan 0 0 nan nan nan nan 3 3 17 21 21 25 29 33 33 35 29 11 10 10 10 13 14 14 22 33
nan nan nan nan nan nan nan nan nan nan nan nan nan nan nan nan nan nan nan nan nan nan nan nan nan nan nan nan nan nan nan nan nan nan nan nan nan nan nan nan nan nan nan nan nan nan nan nan nan nan nan nan nan nan nan nan nan nan nan nan nan nan nan nan nan nan nan nan nan nan nan nan nan nan nan nan nan nan nan nan nan nan nan 2 2 15 21 21 24 28 30 30 32 34 13 8 8 6 8 9 9 10 20
nan nan nan nan nan nan nan nan nan nan nan nan nan nan nan nan nan nan nan nan nan nan nan nan nan nan nan nan nan nan nan nan nan nan nan nan nan nan nan nan nan nan nan nan nan nan nan nan nan nan nan nan nan nan nan nan nan nan nan nan nan nan nan nan nan nan nan nan nan nan nan nan nan nan nan nan nan nan nan nan nan nan nan nan nan 11 18 18 21 26 27 27 28 30 12 5 5 6 5 7 7 5 10
nan nan nan nan nan nan nan nan nan nan nan nan nan nan nan nan nan nan nan nan nan nan nan nan nan nan nan nan nan nan nan nan nan nan nan nan nan nan nan nan nan nan nan nan nan nan nan nan nan nan nan nan nan nan nan nan nan nan nan nan nan nan nan nan nan nan nan nan nan nan nan nan nan nan nan nan nan nan nan nan nan nan nan nan nan 10 15 15 17 22 24 24 25 24 12 5 5 5 6 5 5 4 6
nan nan nan nan nan nan nan nan nan nan nan nan nan nan nan nan nan nan nan nan nan nan nan nan nan nan nan nan nan nan nan nan nan nan nan nan nan nan nan nan nan nan nan nan nan nan nan nan nan nan nan nan nan nan nan nan nan nan nan nan nan nan nan nan nan nan nan nan nan nan nan nan nan nan nan nan nan nan nan nan nan nan nan 0 0 9 14 14 15 19 22 22 20 20 8 5 5 5 4 5 5 6 3
nan nan nan nan nan nan nan nan nan nan nan nan nan nan nan nan nan nan nan nan nan nan nan nan nan nan nan nan nan nan nan nan nan nan nan nan nan nan nan nan nan nan nan nan nan nan nan nan nan nan nan nan nan nan nan nan nan nan nan nan nan nan nan nan nan nan nan nan nan nan nan nan nan nan nan nan nan nan nan nan nan nan nan 5 5 11 12 12 14 16 18 18 19 18 6 1 1 2 2 3 3 4 2